Weather History for Edinburgh Airport, United Kingdom

Change the Weather History Date:

Tuesday, November 6, 2012

  Actual Average Record
Temperature  
Mean Temperature 44 °F -  
Max Temperature 53 °F 47 °F 57 °F (2002)
Min Temperature 35 °F 36 °F 28 °F (1998)
Degree Days  
Heating Degree Days 21    
Moisture  
Dew Point 43 °F    
Average Humidity 86    
Maximum Humidity 93    
Minimum Humidity 76    
Precipitation  
Precipitation 0.00 in 0.08 in - ()
Sea Level Pressure  
Sea Level Pressure 29.94 in    
Wind  
Wind Speed 12 mph ()    
Max Wind Speed 18 mph    
Max Gust Speed -    
Visibility 6.0 miles    
Events Rain    
Averages and records for this station are not official NWS values.
T = Trace of Precipitation, MM = Missing Value Source: Averaged Metar Reports

Daily Weather History Graph

Daily Weather History Graph

Search for Another Location

Airport:

Trip Planner

Search our weather history database for the weather conditions in past years. The results will help you decide how hot, cold, wet, or windy it might be!

Date:

Astronomy

Nov. 06, 2012 Rise Set
Actual Time 7:31 AM GMT 4:21 PM GMT
Civil Twilight 6:50 AM GMT 5:02 PM GMT
Nautical Twilight 6:06 AM GMT 5:46 PM GMT
Astronomical Twilight 5:23 AM GMT 6:29 PM GMT
Moon 10:56 PM GMT (11/6) 1:09 PM GMT (11/6)
Length of Visible Light 10h 11m
Length of Day
8h 50m
Waning Gibbous, 55% of the Moon is Illuminated
Nov 6
Waning Gibbous
Nov 7
Last Quarter
Nov 13
New
Nov 20
First Quarter
Nov 28
Full

Hourly Weather History & Observations

Time (GMT) Temp. Windchill Dew Point Humidity Pressure Visibility Wind Dir Wind Speed Gust Speed Precip Events Conditions
12:20 AM 35.6 °F 29.9 °F 32.0 °F 87% 29.98 in 2.5 mi WSW 6.9 mph - N/A   Haze
12:50 AM 35.6 °F 29.9 °F 32.0 °F 87% 29.98 in 3.1 mi WSW 6.9 mph - N/A   Haze
1:20 AM 35.6 °F 28.6 °F 32.0 °F 87% 29.98 in 4.3 mi WSW 9.2 mph - N/A   Unknown
1:50 AM 35.6 °F 28.6 °F 32.0 °F 87% 29.95 in - WSW 9.2 mph - N/A   Clear
2:20 AM 37.4 °F 32.8 °F 33.8 °F 87% 29.95 in 6.2 mi West 5.8 mph - N/A   Partly Cloudy
2:50 AM 37.4 °F 31.4 °F 35.6 °F 93% 29.92 in 6.2 mi WSW 8.1 mph - N/A Rain Light Rain
3:20 AM 41.0 °F 33.9 °F 37.4 °F 87% 29.92 in 6.2 mi WSW 12.7 mph - N/A Rain Light Rain
3:50 AM 42.8 °F 36.2 °F 39.2 °F 87% 29.92 in 6.2 mi WSW 12.7 mph - N/A   Partly Cloudy
4:20 AM 42.8 °F 37.0 °F 39.2 °F 87% 29.92 in 6.2 mi WSW 10.4 mph - N/A   Mostly Cloudy
4:50 AM 42.8 °F 35.8 °F 41.0 °F 93% 29.89 in 6.2 mi WSW 13.8 mph - N/A   Mostly Cloudy
5:20 AM 44.6 °F 37.8 °F 42.8 °F 93% 29.89 in 6.2 mi WSW 15.0 mph - N/A   Mostly Cloudy
5:50 AM 44.6 °F 37.4 °F 42.8 °F 93% 29.89 in 6.2 mi WSW 16.1 mph - N/A   Mostly Cloudy
6:20 AM 44.6 °F 37.4 °F 42.8 °F 93% 29.86 in 6.2 mi WSW 16.1 mph - N/A   Mostly Cloudy
6:50 AM 46.4 °F 40.4 °F 44.6 °F 93% 29.86 in 6.2 mi WSW 13.8 mph - N/A   Mostly Cloudy
7:20 AM 48.2 °F - 44.6 °F 87% 29.89 in 6.2 mi WSW 16.1 mph - N/A Rain Light Rain
7:50 AM 48.2 °F - 46.4 °F 93% 29.86 in 6.2 mi WSW 18.4 mph - N/A Rain Light Rain
8:20 AM 48.2 °F - 44.6 °F 87% 29.86 in 6.2 mi WSW 16.1 mph - N/A Rain Light Rain
8:50 AM 48.2 °F - 44.6 °F 87% 29.89 in 6.2 mi WSW 17.3 mph - N/A Rain Light Rain
9:20 AM 48.2 °F - 46.4 °F 93% 29.86 in 6.2 mi WSW 17.3 mph - N/A   Partly Cloudy
9:50 AM 48.2 °F - 46.4 °F 93% 29.86 in 6.2 mi WSW 17.3 mph - N/A   Partly Cloudy
10:20 AM 50.0 °F - 46.4 °F 87% 29.89 in 6.2 mi WSW 17.3 mph - N/A   Scattered Clouds
10:50 AM 50.0 °F - 46.4 °F 87% 29.89 in 6.2 mi West 18.4 mph - N/A   Partly Cloudy
11:20 AM 50.0 °F - 46.4 °F 87% 29.89 in 6.2 mi West 15.0 mph - N/A   Partly Cloudy
11:50 AM 50.0 °F - 46.4 °F 87% 29.89 in 6.2 mi West 16.1 mph - N/A   Partly Cloudy
12:20 PM 51.8 °F - 46.4 °F 82% 29.89 in 6.2 mi West 16.1 mph - N/A   Partly Cloudy
12:50 PM 51.8 °F - 46.4 °F 82% 29.89 in 6.2 mi West 16.1 mph - N/A   Partly Cloudy
1:20 PM 51.8 °F - 48.2 °F 88% 29.89 in 6.2 mi West 16.1 mph - N/A   Partly Cloudy
1:50 PM 51.8 °F - 48.2 °F 88% 29.92 in 6.2 mi West 16.1 mph - N/A   Partly Cloudy
2:20 PM 51.8 °F - 48.2 °F 88% 29.92 in 6.2 mi WSW 16.1 mph - N/A   Partly Cloudy
2:50 PM 53.6 °F - 48.2 °F 82% 29.92 in 6.2 mi WSW 17.3 mph - N/A   Partly Cloudy
3:20 PM 51.8 °F - 48.2 °F 88% 29.95 in 6.2 mi WSW 15.0 mph - N/A   Partly Cloudy
3:50 PM 51.8 °F - 48.2 °F 88% 29.95 in 6.2 mi West 13.8 mph - N/A   Partly Cloudy
4:20 PM 51.8 °F - 46.4 °F 82% 29.95 in 6.2 mi West 12.7 mph - N/A   Partly Cloudy
4:50 PM 51.8 °F - 46.4 °F 82% 29.95 in 6.2 mi WSW 15.0 mph - N/A   Partly Cloudy
5:20 PM 51.8 °F - 46.4 °F 82% 29.98 in 6.2 mi West 16.1 mph - N/A   Partly Cloudy
5:50 PM 51.8 °F - 46.4 °F 82% 29.98 in 6.2 mi West 16.1 mph - N/A   Partly Cloudy
6:20 PM 51.8 °F - 46.4 °F 82% 29.98 in 6.2 mi West 15.0 mph - N/A   Partly Cloudy
6:50 PM 50.0 °F - 46.4 °F 87% 30.01 in 6.2 mi WSW 15.0 mph - N/A   Scattered Clouds
7:20 PM 50.0 °F - 46.4 °F 87% 30.01 in 6.2 mi WSW 12.7 mph - N/A   Scattered Clouds
7:50 PM 50.0 °F - 46.4 °F 87% 30.01 in 6.2 mi WSW 18.4 mph - N/A   Scattered Clouds
8:20 PM 50.0 °F - 44.6 °F 82% 30.01 in 6.2 mi West 16.1 mph - N/A   Scattered Clouds
8:50 PM 48.2 °F - 42.8 °F 82% 30.01 in 6.2 mi West 13.8 mph - N/A   Partly Cloudy
9:20 PM 48.2 °F - 42.8 °F 82% 30.01 in 6.2 mi West 17.3 mph - N/A   Partly Cloudy
9:50 PM 48.2 °F - 42.8 °F 82% 30.04 in 6.2 mi WSW 17.3 mph - N/A   Partly Cloudy
10:20 PM 48.2 °F - 42.8 °F 82% 30.04 in 6.2 mi West 16.1 mph - N/A   Scattered Clouds
10:50 PM 48.2 °F - 41.0 °F 76% 30.01 in 6.2 mi WSW 13.8 mph - N/A   Partly Cloudy
11:20 PM 48.2 °F - 42.8 °F 82% 30.01 in 6.2 mi WSW 17.3 mph - N/A   Scattered Clouds
11:50 PM 48.2 °F - 42.8 °F 82% 30.04 in 6.2 mi West 15.0 mph - N/A   Mostly Cloudy